Location: Casone le Fosse
(44.6547°N, 12.1103°E)
Time: 11:09:28
(UTC+00:00)

H-2A R/B - Pass Details

Date: 29 October 2020
Orbit: 577 x 656 km, 98.5° (Epoch: 27 November)

Event Time Altitude Azimuth Distance (km) Brightness Sun altitude
Rises 17:00:20 0° 4° (N) 2,839 5.3 -10.5°
Reaches altitude 10° 17:02:42 10° 353° (N) 1,922 4.6 -10.9°
Maximum altitude 17:06:19 30° 293° (WNW) 1,066 4.0 -11.6°
Drops below altitude 10° 17:09:52 10° 232° (SW) 1,889 5.5 -12.2°
Sets 17:12:11 0° 221° (SW) 2,780 6.2 -12.6°
